UIA87 LTFM-UKOO

Flight info

Callsign UIA87
Flight time 0h 57m
Altitude 38000
Route MAKOL1D MAKOL N617 BINBI/N0473F390 DCT OSDOR/K0882F400 N617 AMNEZ AMNEZ2Y
Aircraft B773/H-SDFGRY/LB1

Departure

Time 2026-04-16 03:48
Airport İstanbul Airport (LTFM)

Arrival

Time 2026-04-16 04:46
Airport Odesa International Airport (UKOO)
Time Latitude Longitude Altitude Speed Heading
2026-04-16 03:17 41.26792 28.73442 339 ft 0 kts 179°
2026-04-16 03:25 41.26793 28.73442 339 ft 0 kts 179°
2026-04-16 03:37 41.26794 28.73442 339 ft 0 kts 179°
2026-04-16 03:42 41.26802 28.73441 334 ft 4 kts 179°
2026-04-16 03:42 41.26830 28.73441 336 ft 3 kts 179°
2026-04-16 03:42 41.26853 28.73440 333 ft 4 kts 190°
2026-04-16 03:42 41.26870 28.73454 333 ft 8 kts 259°
2026-04-16 03:43 41.26871 28.73488 333 ft 2 kts 269°
2026-04-16 03:43 41.26871 28.73491 333 ft 1 kts 269°
2026-04-16 03:44 41.26871 28.73492 333 ft 0 kts 269°
2026-04-16 03:45 41.26871 28.73486 333 ft 2 kts 269°
2026-04-16 03:45 41.26870 28.73437 333 ft 9 kts 269°
2026-04-16 03:45 41.26869 28.73326 335 ft 15 kts 269°
2026-04-16 03:46 41.26867 28.73156 336 ft 21 kts 268°
2026-04-16 03:46 41.26848 28.73004 333 ft 14 kts 223°
2026-04-16 03:46 41.26733 28.72992 336 ft 20 kts 179°
2026-04-16 03:46 41.26575 28.72996 337 ft 26 kts 179°
2026-04-16 03:47 41.26386 28.73003 335 ft 21 kts 178°
2026-04-16 03:47 41.26306 28.72935 335 ft 14 kts 262°
2026-04-16 03:47 41.26304 28.72793 335 ft 15 kts 302°
2026-04-16 03:47 41.26414 28.72770 334 ft 22 kts 359°
2026-04-16 03:48 41.26806 28.72764 338 ft 103 kts 359°
2026-04-16 03:48 41.27816 28.72730 386 ft 180 kts 359°
2026-04-16 03:48 41.29190 28.72661 808 ft 212 kts 359°
2026-04-16 03:48 41.30668 28.72604 2080 ft 205 kts
2026-04-16 03:49 41.32146 28.72603 2867 ft 225 kts
2026-04-16 03:49 41.33789 28.72599 3478 ft 243 kts
2026-04-16 03:49 41.35518 28.72580 4285 ft 252 kts
2026-04-16 03:49 41.37302 28.72551 5180 ft 259 kts 359°
2026-04-16 03:50 41.39061 28.72096 6076 ft 258 kts 336°
2026-04-16 03:50 41.40692 28.71027 6910 ft 265 kts 333°
2026-04-16 03:50 41.42361 28.69936 7871 ft 267 kts 333°
2026-04-16 03:50 41.44027 28.68857 8831 ft 271 kts 332°
2026-04-16 03:51 41.45738 28.67753 9755 ft 276 kts 333°
2026-04-16 03:51 41.47494 28.66623 10544 ft 285 kts 333°
2026-04-16 03:51 41.49364 28.65422 10887 ft 313 kts 333°
2026-04-16 03:51 41.51420 28.64103 11138 ft 344 kts 333°
2026-04-16 03:52 41.53708 28.62858 11291 ft 369 kts 346°
2026-04-16 03:52 41.56324 28.62797 11998 ft 387 kts
2026-04-16 03:52 41.58859 28.64133 13019 ft 401 kts 31°
2026-04-16 03:52 41.60898 28.66730 13982 ft 411 kts 52°
2026-04-16 03:53 41.62487 28.69965 14144 ft 421 kts 57°
2026-04-16 03:53 41.64014 28.73322 14160 ft 420 kts 57°
2026-04-16 03:53 41.65524 28.76648 14158 ft 417 kts 57°
2026-04-16 03:53 41.67052 28.79943 14159 ft 416 kts 56°
2026-04-16 03:54 41.68605 28.83222 14168 ft 417 kts 56°
2026-04-16 03:54 41.70147 28.86441 14167 ft 417 kts 56°
2026-04-16 03:54 41.71715 28.89707 14164 ft 415 kts 55°
2026-04-16 03:54 41.73566 28.92632 14160 ft 412 kts 38°
2026-04-16 03:55 41.76044 28.94555 14768 ft 413 kts 19°
2026-04-16 03:55 41.78762 28.95873 15656 ft 419 kts 17°
2026-04-16 03:55 41.81528 28.97164 16649 ft 423 kts 17°
2026-04-16 03:55 41.84328 28.98472 17677 ft 428 kts 17°
2026-04-16 03:56 41.87155 28.99803 18581 ft 435 kts 17°
2026-04-16 03:56 41.90028 29.01170 19381 ft 441 kts 17°
2026-04-16 03:56 41.92935 29.02565 20191 ft 446 kts 17°
2026-04-16 03:56 41.95881 29.03987 21038 ft 451 kts 17°
2026-04-16 03:57 41.98855 29.05427 21791 ft 457 kts 17°
2026-04-16 03:57 42.01829 29.06869 22518 ft 463 kts 17°
2026-04-16 03:57 42.04878 29.08349 23239 ft 469 kts 17°
2026-04-16 03:57 42.07963 29.09849 23904 ft 474 kts 17°
2026-04-16 03:58 42.11082 29.11366 24480 ft 479 kts 17°
2026-04-16 03:58 42.14233 29.12899 25060 ft 484 kts 16°
2026-04-16 03:58 42.17416 29.14440 25617 ft 487 kts 15°
2026-04-16 03:58 42.20672 29.15748 26127 ft 489 kts 11°
2026-04-16 03:59 42.23989 29.16804 26608 ft 491 kts
2026-04-16 03:59 42.27349 29.17758 27055 ft 495 kts
2026-04-16 03:59 42.30735 29.18700 27513 ft 498 kts
2026-04-16 03:59 42.34136 29.19670 27922 ft 501 kts
2026-04-16 04:00 42.37560 29.20681 28303 ft 504 kts
2026-04-16 04:00 42.40991 29.21726 28631 ft 507 kts
2026-04-16 04:00 42.44396 29.22785 28926 ft 510 kts
2026-04-16 04:00 42.47855 29.23872 29302 ft 511 kts
2026-04-16 04:01 42.51308 29.24966 29844 ft 508 kts
2026-04-16 04:01 42.54749 29.26056 30351 ft 506 kts
2026-04-16 04:01 42.58181 29.27142 30740 ft 505 kts
2026-04-16 04:01 42.61608 29.28224 31093 ft 505 kts
2026-04-16 04:02 42.65031 29.29304 31437 ft 505 kts
2026-04-16 04:02 42.68451 29.30383 31843 ft 504 kts
2026-04-16 04:02 42.71824 29.31449 32243 ft 503 kts
2026-04-16 04:02 42.75235 29.32528 32622 ft 502 kts
2026-04-16 04:03 42.78638 29.33606 32981 ft 501 kts
2026-04-16 04:03 42.82037 29.34683 33340 ft 501 kts
2026-04-16 04:03 42.85430 29.35761 33714 ft 500 kts
2026-04-16 04:03 42.88818 29.36837 34070 ft 499 kts
2026-04-16 04:04 42.92200 29.37914 34388 ft 499 kts
2026-04-16 04:04 42.95583 29.38992 34672 ft 499 kts
2026-04-16 04:04 42.98965 29.40070 34947 ft 499 kts
2026-04-16 04:04 43.02343 29.41149 35243 ft 498 kts
2026-04-16 04:05 43.05717 29.42226 35548 ft 497 kts
2026-04-16 04:05 43.09080 29.43303 35837 ft 497 kts
2026-04-16 04:05 43.11309 29.44017 36005 ft 497 kts
2026-04-16 04:05 43.14683 29.45098 36254 ft 497 kts
2026-04-16 04:06 43.18050 29.46179 36514 ft 497 kts
2026-04-16 04:06 43.21415 29.47260 36783 ft 497 kts
2026-04-16 04:06 43.24784 29.48344 37089 ft 495 kts
2026-04-16 04:06 43.28140 29.49425 37370 ft 495 kts
2026-04-16 04:07 43.31495 29.50507 37585 ft 495 kts
2026-04-16 04:07 43.38171 29.52662 38035 ft 495 kts
2026-04-16 04:07 43.41532 29.53749 38168 ft 497 kts
2026-04-16 04:08 43.48142 29.55898 38183 ft 475 kts
2026-04-16 04:08 43.54493 29.57963 38200 ft 465 kts
2026-04-16 04:09 43.60790 29.60006 38228 ft 465 kts
2026-04-16 04:09 43.67047 29.62045 38217 ft 465 kts
2026-04-16 04:10 43.73352 29.64105 38213 ft 465 kts
2026-04-16 04:10 43.79655 29.66140 38230 ft 465 kts
2026-04-16 04:11 43.85961 29.68171 38214 ft 465 kts
2026-04-16 04:11 43.92267 29.70210 38212 ft 465 kts
2026-04-16 04:12 43.98530 29.72242 38234 ft 465 kts
2026-04-16 04:12 44.04837 29.74294 38215 ft 466 kts
2026-04-16 04:13 44.11154 29.76353 38218 ft 466 kts
2026-04-16 04:13 44.17468 29.78416 38239 ft 466 kts
2026-04-16 04:14 44.23764 29.80477 38227 ft 467 kts
2026-04-16 04:14 44.30093 29.82554 38225 ft 468 kts
2026-04-16 04:15 44.36429 29.84638 38231 ft 468 kts
2026-04-16 04:15 44.42772 29.86729 38225 ft 468 kts
2026-04-16 04:16 44.49115 29.88825 38234 ft 468 kts
2026-04-16 04:16 44.55455 29.90924 38227 ft 468 kts
2026-04-16 04:17 44.61797 29.93029 38220 ft 468 kts
2026-04-16 04:17 44.68140 29.95138 38237 ft 468 kts
2026-04-16 04:18 44.74438 29.97237 38235 ft 468 kts
2026-04-16 04:18 44.80772 29.99354 38227 ft 468 kts
2026-04-16 04:19 44.83947 30.00416 38012 ft 471 kts
2026-04-16 04:19 44.87172 30.01494 37228 ft 478 kts
2026-04-16 04:19 44.90397 30.02578 36544 ft 475 kts
2026-04-16 04:19 44.93610 30.03659 35823 ft 473 kts
2026-04-16 04:20 44.96795 30.04739 35316 ft 468 kts
2026-04-16 04:20 44.99918 30.06062 34762 ft 467 kts 13°
2026-04-16 04:20 45.02967 30.07591 34234 ft 464 kts 14°
2026-04-16 04:20 45.05985 30.09148 33628 ft 460 kts 14°
2026-04-16 04:21 45.08979 30.10700 33078 ft 456 kts 14°
2026-04-16 04:21 45.11942 30.12230 32559 ft 451 kts 14°
2026-04-16 04:21 45.14844 30.13720 32050 ft 447 kts 14°
2026-04-16 04:21 45.17788 30.15223 31547 ft 443 kts 14°
2026-04-16 04:22 45.20648 30.16679 31046 ft 440 kts 14°
2026-04-16 04:22 45.23524 30.18142 30543 ft 437 kts 14°
2026-04-16 04:22 45.26378 30.19594 30005 ft 434 kts 14°
2026-04-16 04:22 45.29208 30.21036 29451 ft 431 kts 15°
2026-04-16 04:23 45.32012 30.22468 28950 ft 426 kts 15°
2026-04-16 04:23 45.34787 30.23886 28437 ft 422 kts 15°
2026-04-16 04:23 45.37541 30.25295 27938 ft 419 kts 15°
2026-04-16 04:23 45.40273 30.26694 27430 ft 415 kts 15°
2026-04-16 04:24 45.42983 30.28083 26943 ft 412 kts 15°
2026-04-16 04:24 45.45673 30.29462 26454 ft 409 kts 15°
2026-04-16 04:24 45.48331 30.30827 25973 ft 406 kts 15°
2026-04-16 04:24 45.50971 30.32184 25499 ft 403 kts 15°
2026-04-16 04:25 45.53568 30.33521 25026 ft 400 kts 15°
2026-04-16 04:25 45.56181 30.34866 24576 ft 398 kts 15°
2026-04-16 04:25 45.58781 30.36207 24106 ft 396 kts 15°
2026-04-16 04:25 45.61372 30.37544 23593 ft 394 kts 15°
2026-04-16 04:26 45.63941 30.38871 23067 ft 392 kts 15°
2026-04-16 04:26 45.66499 30.40195 22576 ft 388 kts 16°
2026-04-16 04:26 45.69028 30.41505 22119 ft 385 kts 16°
2026-04-16 04:26 45.71542 30.42807 21651 ft 382 kts 16°
2026-04-16 04:27 45.74028 30.44096 21195 ft 379 kts 16°
2026-04-16 04:27 45.76495 30.45377 20749 ft 376 kts 17°
2026-04-16 04:27 45.78944 30.46639 20303 ft 373 kts 16°
2026-04-16 04:27 45.81393 30.47873 19859 ft 371 kts 16°
2026-04-16 04:28 45.83823 30.49088 19410 ft 369 kts 16°
2026-04-16 04:28 45.86205 30.50282 18973 ft 367 kts 17°
2026-04-16 04:28 45.88619 30.51494 18527 ft 365 kts 17°
2026-04-16 04:28 45.91013 30.52700 18022 ft 363 kts 17°
2026-04-16 04:29 45.93391 30.53900 17537 ft 361 kts 17°
2026-04-16 04:29 45.95754 30.55094 17096 ft 358 kts 17°
2026-04-16 04:29 45.98102 30.56281 16660 ft 356 kts 17°
2026-04-16 04:29 46.00431 30.57447 16206 ft 350 kts 14°
2026-04-16 04:30 46.02778 30.58013 15766 ft 339 kts 358°
2026-04-16 04:30 46.05088 30.57959 15358 ft 335 kts 356°
2026-04-16 04:30 46.07447 30.57882 14941 ft 334 kts 356°
2026-04-16 04:30 46.09737 30.57830 14531 ft 333 kts 356°
2026-04-16 04:31 46.12051 30.57797 14104 ft 332 kts 357°
2026-04-16 04:31 46.14354 30.57779 13653 ft 331 kts 357°
2026-04-16 04:31 46.16651 30.57769 13228 ft 329 kts 357°
2026-04-16 04:31 46.18932 30.57763 12796 ft 327 kts 357°
2026-04-16 04:32 46.21205 30.57758 12369 ft 325 kts 357°
2026-04-16 04:32 46.23461 30.57753 11952 ft 324 kts 357°
2026-04-16 04:32 46.25685 30.57607 11523 ft 315 kts 348°
2026-04-16 04:32 46.27788 30.56795 11142 ft 311 kts 340°
2026-04-16 04:33 46.29841 30.55837 10760 ft 310 kts 340°
2026-04-16 04:33 46.31874 30.54899 10497 ft 304 kts 340°
2026-04-16 04:33 46.33867 30.53995 10371 ft 294 kts 340°
2026-04-16 04:33 46.35765 30.53149 10302 ft 283 kts 340°
2026-04-16 04:34 46.37626 30.52324 10047 ft 279 kts 340°
2026-04-16 04:34 46.39495 30.51499 9618 ft 281 kts 341°
2026-04-16 04:34 46.41365 30.50677 9275 ft 280 kts 341°
2026-04-16 04:34 46.43227 30.49861 8955 ft 279 kts 341°
2026-04-16 04:35 46.45080 30.49050 8618 ft 277 kts 341°
2026-04-16 04:35 46.46921 30.48244 8285 ft 276 kts 341°
2026-04-16 04:35 46.48755 30.47440 7960 ft 275 kts 341°
2026-04-16 04:35 46.50583 30.46640 7648 ft 274 kts 342°
2026-04-16 04:36 46.52405 30.45842 7353 ft 272 kts 342°
2026-04-16 04:36 46.54187 30.45062 7233 ft 263 kts 342°
2026-04-16 04:36 46.55893 30.44314 7114 ft 255 kts 342°
2026-04-16 04:36 46.57567 30.43580 6947 ft 249 kts 342°
2026-04-16 04:37 46.59213 30.42862 6729 ft 245 kts 342°
2026-04-16 04:37 46.60836 30.42155 6492 ft 242 kts 342°
2026-04-16 04:37 46.62434 30.41459 6256 ft 238 kts 342°
2026-04-16 04:37 46.64013 30.40770 6032 ft 236 kts 342°
2026-04-16 04:38 46.65584 30.40085 5803 ft 234 kts 343°
2026-04-16 04:38 46.67178 30.39909 5550 ft 233 kts 14°
2026-04-16 04:38 46.68584 30.41078 5382 ft 238 kts 49°
2026-04-16 04:38 46.69384 30.43188 5176 ft 241 kts 73°
2026-04-16 04:39 46.69861 30.45531 4940 ft 242 kts 74°
2026-04-16 04:39 46.70335 30.47866 4694 ft 239 kts 74°
2026-04-16 04:39 46.70803 30.50162 4452 ft 234 kts 74°
2026-04-16 04:39 46.71034 30.52434 4205 ft 225 kts 100°
2026-04-16 04:40 46.70401 30.54473 4070 ft 226 kts 132°
2026-04-16 04:40 46.69138 30.55864 3888 ft 231 kts 156°
2026-04-16 04:40 46.67608 30.56628 3640 ft 233 kts 164°
2026-04-16 04:40 46.66068 30.57243 3386 ft 231 kts 165°
2026-04-16 04:41 46.64538 30.57851 3155 ft 226 kts 165°
2026-04-16 04:41 46.63044 30.58486 2938 ft 221 kts 164°
2026-04-16 04:41 46.61572 30.59120 2750 ft 221 kts 164°
2026-04-16 04:41 46.60101 30.59755 2561 ft 218 kts 164°
2026-04-16 04:42 46.58635 30.60392 2343 ft 222 kts 164°
2026-04-16 04:42 46.57182 30.61026 2134 ft 213 kts 164°
2026-04-16 04:42 46.55841 30.61610 2015 ft 188 kts 164°
2026-04-16 04:42 46.54650 30.62127 1939 ft 172 kts 165°
2026-04-16 04:43 46.53505 30.62622 1940 ft 171 kts 165°
2026-04-16 04:43 46.52374 30.63113 1957 ft 169 kts 165°
2026-04-16 04:43 46.51245 30.63602 1762 ft 168 kts 165°
2026-04-16 04:43 46.50185 30.64062 1519 ft 151 kts 165°
2026-04-16 04:44 46.49222 30.64479 1333 ft 140 kts 165°
2026-04-16 04:44 46.48309 30.64874 1138 ft 132 kts 165°
2026-04-16 04:44 46.47431 30.65249 977 ft 133 kts 165°
2026-04-16 04:44 46.46527 30.65649 804 ft 138 kts 165°
2026-04-16 04:45 46.45585 30.66044 604 ft 145 kts 164°
2026-04-16 04:45 46.44602 30.66475 385 ft 150 kts 163°
2026-04-16 04:45 46.43623 30.66902 207 ft 143 kts 163°
2026-04-16 04:45 46.42749 30.67281 176 ft 113 kts 163°
2026-04-16 04:46 46.42265 30.67487 177 ft 43 kts 163°
2026-04-16 04:46 46.42059 30.67701 177 ft 34 kts 132°
2026-04-16 04:46 46.42039 30.67898 178 ft 14 kts 44°
2026-04-16 04:46 46.42132 30.67886 178 ft 15 kts 346°
2026-04-16 04:47 46.42239 30.67841 178 ft 17 kts 343°
2026-04-16 04:47 46.42360 30.67787 178 ft 19 kts 343°
2026-04-16 04:47 46.42496 30.67728 178 ft 22 kts 343°
2026-04-16 04:47 46.42653 30.67659 178 ft 25 kts 343°
2026-04-16 04:48 46.42831 30.67580 178 ft 28 kts 343°
2026-04-16 04:48 46.43029 30.67498 178 ft 31 kts 344°
2026-04-16 04:48 46.43245 30.67405 178 ft 34 kts 343°
2026-04-16 04:48 46.43476 30.67304 178 ft 36 kts 343°
2026-04-16 04:49 46.43687 30.67213 178 ft 27 kts 343°
2026-04-16 04:49 46.43840 30.67148 178 ft 11 kts 353°
2026-04-16 04:49 46.43890 30.67230 178 ft 13 kts 71°
2026-04-16 04:49 46.43922 30.67336 178 ft 10 kts 40°
2026-04-16 04:50 46.43993 30.67334 178 ft 11 kts 347°
2026-04-16 04:50 46.44076 30.67310 178 ft 13 kts 349°
2026-04-16 04:50 46.44138 30.67279 178 ft 5 kts 313°
2026-04-16 04:50 46.44141 30.67243 178 ft 2 kts 262°
2026-04-16 04:51 46.44138 30.67218 178 ft 4 kts 260°
2026-04-16 04:51 46.44137 30.67204 178 ft 0 kts 260°